DW8248 Weather Reports


Display with metric or nautical units.
time (UTC)temp
F
wind
direction
speed
MPH
gust
MPH
rain 1hr
in
rain 24hr
in
rain mn
in
humidity
%
barometer
mb
20260507093553 74 184 3.0 5.0 0.00 0.00 0.00 81 1014.7
20260507092533 74 208 3.0 4.0 0.00 0.00 0.00 81 1014.8
20260507091555 74 221 2.0 4.0 0.00 0.00 0.00 81 1014.9
20260507085425 74 227 0.0 0.0 0.00 0.00 0.00 81 1014.7
20260507084416 74 219 2.0 5.0 0.00 0.00 0.00 81 1014.5
20260507083354 74 212 3.0 5.0 0.00 0.00 0.00 81 1014.4
20260507082323 74 209 3.0 4.0 0.00 0.00 0.00 81 1014.4
20260507081332 74 195 3.0 4.0 0.00 0.00 0.00 81 1014.4
20260507080257 74 216 2.0 4.0 0.00 0.00 0.00 81 1014.4
20260507075244 74 223 2.0 3.0 0.00 0.00 0.00 81 1014.4
20260507074208 74 205 3.0 4.0 0.00 0.00 0.00 81 1014.5
20260507073206 74 209 3.0 5.0 0.00 0.00 0.00 81 1014.6
20260507071055 75 212 6.0 7.0 0.00 0.00 0.00 81 1014.8
20260507070032 75 190 4.0 7.0 0.00 0.00 0.00 81 1014.8
20260507065026 75 193 3.0 6.0 0.00 0.00 0.00 80 1015.0
20260507064000 75 243 5.0 7.0 0.00 0.00 0.00 80 1015.2
20260507062952 75 248 4.0 7.0 0.00 0.00 0.00 80 1015.4
20260507062010 75 232 4.0 6.0 0.00 0.00 0.00 79 1015.4
20260507061006 76 237 5.0 7.0 0.00 0.00 0.00 79 1015.4
20260507060014 76 209 5.0 7.0 0.00 0.00 0.00 79 1015.4
20260507054957 76 193 6.0 8.0 0.00 0.00 0.00 79 1015.4
20260507053946 76 216 6.0 10.0 0.00 0.00 0.00 78 1015.6
20260507052911 77 228 7.0 11.0 0.00 0.00 0.00 77 1015.7
20260507051847 79 232 7.0 12.0 0.00 0.00 0.00 75 1015.9
20260507050817 79 158 6.0 12.0 0.00 0.00 0.00 74 1016.0
20260507045749 79 143 6.0 12.0 0.00 0.00 0.00 74 1016.0
20260507044747 79 142 7.0 12.0 0.00 0.00 0.00 73 1015.9
20260507041444 79 142 6.0 11.0 0.00 0.00 0.00 73 1015.6
20260507035346 79 139 6.0 12.0 0.00 0.00 0.00 72 1015.9
20260507033225 79 156 5.0 12.0 0.00 0.00 0.00 73 1015.9
20260507032247 79 137 5.0 12.0 0.00 0.00 0.00 73 1015.9
20260507031240 79 95 7.0 12.0 0.00 0.00 0.00 73 1015.8
20260507030226 79 148 6.0 12.0 0.00 0.00 0.00 73 1015.6
20260507023020 79 105 5.0 11.0 0.00 0.00 0.00 73 1015.9
20260507015713 79 95 5.0 11.0 0.00 0.00 0.00 72 1016.0
20260507013625 79 131 6.0 11.0 0.00 0.00 0.00 71 1016.1
20260507012632 79 117 5.0 9.0 0.00 0.00 0.00 71 1016.0
20260507011653 80 86 5.0 10.0 0.00 0.00 0.00 70 1015.9
20260507010704 80 132 5.0 10.0 0.00 0.00 0.00 69 1015.8
20260507005639 80 140 6.0 10.0 0.00 0.00 0.00 69 1015.8
20260507004612 80 121 6.0 12.0 0.00 0.00 0.00 69 1015.7
20260507003626 80 142 6.0 12.0 0.00 0.00 0.00 69 1015.7
20260507002601 80 134 6.0 11.0 0.00 0.00 0.00 69 1015.5
20260507000500 80 113 5.0 12.0 0.00 0.00 0.00 68 1015.3
20260506235457 80 111 5.0 10.0 0.00 0.00 0.00 68 1015.4
20260506234507 81 132 5.0 11.0 0.00 0.00 0.00 66 1015.5
20260506233501 81 123 5.0 11.0 0.00 0.00 0.00 65 1015.5
20260506232523 81 93 5.0 11.0 0.00 0.00 0.00 65 1015.6
20260506231511 81 128 5.0 11.0 0.00 0.00 0.00 64 1015.5
20260506230532 82 145 5.0 11.0 0.00 0.00 0.00 63 1015.5
20260506224321 82 0 6.0 11.0 0.00 0.00 0.00 58 1015.5
20260506223325 82 100 6.0 11.0 0.00 0.00 0.00 55 1015.5
20260506222322 82 92 5.0 11.0 0.00 0.00 0.00 58 1015.6
20260506221315 82 143 6.0 11.0 0.00 0.00 0.00 59 1015.7
20260506220311 82 115 5.0 12.0 0.00 0.00 0.00 64 1015.7
20260506214151 82 139 7.0 11.0 0.00 0.00 0.00 63 1015.6
20260506213129 82 113 6.0 11.0 0.00 0.00 0.00 66 1015.6
20260506210932 82 123 7.0 12.0 0.00 0.00 0.00 67 1015.8
20260506205917 82 103 7.0 12.0 0.00 0.00 0.00 68 1015.8
20260506204937 82 160 6.0 14.0 0.00 0.00 0.00 68 1015.8
20260506203935 82 96 5.0 14.0 0.00 0.00 0.00 67 1015.8
20260506202931 82 100 7.0 13.0 0.00 0.00 0.00 69 1015.8
20260506201946 82 101 6.0 12.0 0.00 0.00 0.00 68 1015.8
20260506200932 82 101 6.0 12.0 0.00 0.00 0.00 68 1015.8
20260506195857 82 123 6.0 13.0 0.00 0.00 0.00 69 1015.8
20260506194826 82 100 7.0 13.0 0.00 0.00 0.00 67 1015.9
20260506192632 82 120 6.0 11.0 0.00 0.00 0.00 69 1016.1
20260506191621 82 109 6.0 11.0 0.00 0.00 0.00 70 1016.1
20260506190600 82 127 6.0 13.0 0.00 0.00 0.00 70 1016.3
20260506185607 81 106 7.0 13.0 0.00 0.00 0.00 71 1016.4
20260506183414 81 131 8.0 12.0 0.00 0.00 0.00 71 1016.5
20260506182426 81 105 7.0 11.0 0.00 0.00 0.00 73 1016.6
20260506181428 81 129 7.0 12.0 0.00 0.00 0.00 73 1016.8
20260506180424 81 113 7.0 12.0 0.00 0.00 0.00 74 1016.9
20260506175440 81 134 6.0 12.0 0.00 0.00 0.00 73 1017.0
20260506174459 81 87 8.0 12.0 0.00 0.00 0.00 74 1016.9
20260506173448 81 114 6.0 12.0 0.00 0.00 0.00 74 1017.0
20260506171230 81 114 6.0 11.0 0.00 0.00 0.00 75 1017.2
20260506170201 81 153 6.0 11.0 0.00 0.00 0.00 75 1017.1
20260506165204 80 89 5.0 10.0 0.00 0.00 0.00 75 1017.3
20260506164159 80 94 5.0 10.0 0.00 0.00 0.00 75 1017.3
20260506163128 80 129 6.0 10.0 0.00 0.00 0.00 75 1017.3
20260506162122 81 90 4.0 11.0 0.00 0.00 0.00 75 1017.3
20260506160003 80 140 6.0 12.0 0.00 0.00 0.00 75 1017.4
20260506153911 80 86 6.0 10.0 0.00 0.00 0.00 75 1017.5
20260506151720 80 147 6.0 10.0 0.00 0.00 0.00 75 1017.4
20260506150732 80 130 5.0 9.0 0.00 0.00 0.00 74 1017.4
20260506145732 80 116 5.0 9.0 0.00 0.00 0.00 75 1017.3
20260506144738 80 91 6.0 11.0 0.00 0.00 0.00 75 1017.3
20260506143732 79 140 5.0 12.0 0.00 0.00 0.00 76 1017.3
20260506142740 79 113 6.0 12.0 0.00 0.00 0.00 76 1017.3
20260506141734 79 132 6.0 10.0 0.00 0.00 0.00 76 1017.1
20260506140700 79 132 6.0 12.0 0.00 0.00 0.00 76 1017.2
20260506135627 79 149 6.0 12.0 0.00 0.00 0.00 76 1017.1
20260506134610 79 140 6.0 10.0 0.00 0.00 0.00 77 1017.0
20260506133610 79 173 5.0 12.0 0.00 0.00 0.00 77 1017.0
20260506132630 78 155 7.0 12.0 0.00 0.00 0.00 78 1016.9
20260506131553 78 126 6.0 11.0 0.00 0.00 0.00 79 1016.7
20260506130526 77 162 2.0 5.0 0.00 0.00 0.00 81 1016.5
20260506125524 76 164 3.0 5.0 0.00 0.00 0.00 82 1016.7
20260506124506 76 173 2.0 5.0 0.00 0.00 0.00 82 1016.6
20260506123433 76 177 0.0 0.0 0.00 0.00 0.00 82 1016.6
20260506122430 76 177 0.0 0.0 0.00 0.00 0.00 82 1016.6
20260506120243 75 177 0.0 0.0 0.00 0.00 0.00 82 1016.5
20260506115253 75 177 0.0 0.0 0.00 0.00 0.00 82 1016.4
20260506114250 75 177 0.0 0.0 0.00 0.00 0.00 82 1016.3
20260506113231 75 177 1.0 3.0 0.00 0.00 0.00 82 1016.2
20260506112157 75 200 1.0 3.0 0.00 0.00 0.00 82 1016.3
20260506111145 75 213 2.0 3.0 0.00 0.00 0.00 81 1016.3
20260506110143 75 231 2.0 3.0 0.00 0.00 0.00 81 1016.2
20260506105129 76 223 2.0 3.0 0.00 0.00 0.00 80 1016.0
20260506104052 76 172 2.0 4.0 0.00 0.00 0.00 78 1015.8
20260506103044 76 146 2.0 6.0 0.00 0.00 0.00 77 1015.6
20260506102034 76 161 3.0 6.0 0.00 0.00 0.00 77 1015.4
20260506101010 76 146 3.0 7.0 0.00 0.00 0.00 77 1015.5
20260506095951 76 130 3.0 7.0 0.00 0.00 0.00 76 1015.4
20260506094954 76 144 3.0 7.0 0.00 0.00 0.00 76 1015.5
20260506093938 76 144 3.0 7.0 0.00 0.00 0.00 77 1015.5